Roseburg, OR

10:27 PM PDT on April 24, 2017 (GMT -0700)
Roseburg Regional

Weather History for KRBG - December, 2013

Change the Weather History Date:

Tuesday, December 17, 2013

  Actual Average Record
Temperature  
Mean Temperature 36 °F 42 °F  
Max Temperature 39 °F 47 °F 60 °F (1999)
Min Temperature 33 °F 36 °F 17 °F (1964)
Degree Days  
Heating Degree Days 29 23  
Month to date heating degree days 497 385  
Since 1 July heating degree days 1456 1314  
Cooling Degree Days 0 0  
Month to date cooling degree days 0 0  
Year to date cooling degree days 823 480  
Moisture  
Dew Point 34 °F    
Average Humidity 96    
Maximum Humidity 100    
Minimum Humidity 92    
Precipitation  
Precipitation 0.00 in 0.23 in 1.12 in (1982)
Month to date precipitation 0.40 3.32  
Year to date precipitation 15.79 33.06  
Sea Level Pressure  
Sea Level Pressure 30.23 in    
Wind  
Wind Speed 1 mph (East)    
Max Wind Speed 6 mph    
Max Gust Speed -    
Visibility 2 miles    
Events Fog    
T = Trace of Precipitation, MM = Missing Value Source: NWS Daily Summary

Daily Weather History Graph

Daily Weather History Graph

Search for Another Location

Airport or City:

Trip Planner

Search our weather history database for the weather conditions in past years. The results will help you decide how hot, cold, wet, or windy it might be!

Date:

Astronomy

Dec. 17, 2013 Rise Set
Actual Time 7:40 AM PST 4:39 PM PST
Civil Twilight 7:07 AM PST 5:11 PM PST
Nautical Twilight 6:31 AM PST 5:47 PM PST
Astronomical Twilight 5:56 AM PST 6:22 PM PST
Moon 5:25 PM PST (12/17) 7:39 AM PST (12/17)
Length of Visible Light 10h 04m
Length of Day
8h 59m
Full, 100% of the Moon is Illuminated
Dec 17
Full
Dec 25
Last Quarter
Jan 1
New
Jan 7
First Quarter
Jan 15
Full

Hourly Weather History & Observations

Time (PST) Temp. Windchill Dew Point Humidity Pressure Visibility Wind Dir Wind Speed Gust Speed Precip Events Conditions
12:08 AM 34.0 °F 31.0 °F 33.1 °F 96% 30.26 in 1.2 mi East 3.5 mph - N/A   Overcast
12:50 AM 33.8 °F - 33.8 °F 100% 30.25 in 0.8 mi Calm Calm - N/A   Mist
12:53 AM 34.0 °F - 33.1 °F 96% 30.27 in 0.8 mi Calm Calm - N/A   Mist
1:40 AM 34.0 °F 31.0 °F 33.1 °F 96% 30.24 in 1.0 mi NNE 3.5 mph - N/A   Mist
1:53 AM 34.0 °F - 33.1 °F 96% 30.26 in 0.8 mi Calm Calm - N/A   Mist
2:21 AM 34.0 °F 31.0 °F 33.1 °F 96% 30.24 in 1.2 mi NE 3.5 mph - N/A   Overcast
2:45 AM 34.0 °F - 33.1 °F 96% 30.23 in 0.8 mi Calm Calm - N/A   Mist
2:53 AM 34.0 °F - 34.0 °F 100% 30.25 in 0.8 mi Calm Calm - N/A   Mist
3:49 AM 33.8 °F 30.8 °F 33.8 °F 100% 30.22 in 1.0 mi NNE 3.5 mph - N/A   Mist
3:53 AM 33.1 °F 30.0 °F 33.1 °F 100% 30.24 in 1.0 mi NE 3.5 mph - N/A   Mist
4:24 AM 34.0 °F - 34.0 °F 100% 30.22 in 0.8 mi Calm Calm - N/A   Mist
4:53 AM 34.0 °F - 33.1 °F 96% 30.24 in 0.8 mi Calm Calm - N/A   Mist
5:16 AM 34.0 °F - 33.1 °F 96% 30.23 in 1.2 mi Calm Calm - N/A   Overcast
5:53 AM 34.0 °F - 33.1 °F 96% 30.25 in 1.0 mi Calm Calm - N/A   Overcast
6:10 AM 33.1 °F 30.0 °F 33.1 °F 100% 30.24 in 0.8 mi NE 3.5 mph - N/A   Mist
6:39 AM 33.1 °F - 33.1 °F 100% 30.24 in 1.0 mi Calm Calm - N/A   Mist
6:48 AM 33.8 °F - 33.8 °F 100% 30.24 in 0.8 mi Calm Calm - N/A   Mist
6:53 AM 34.0 °F - 33.1 °F 96% 30.26 in 0.8 mi Calm Calm - N/A   Mist
7:53 AM 33.1 °F 30.0 °F 33.1 °F 100% 30.27 in 0.8 mi SSE 3.5 mph - N/A   Mist
8:10 AM 33.1 °F - 33.1 °F 100% 30.25 in 0.2 mi Calm Calm - N/A Fog Fog
8:53 AM 33.1 °F - 33.1 °F 100% 30.27 in 0.5 mi Calm Calm - N/A Fog Fog
9:22 AM 33.1 °F - 33.1 °F 100% 30.26 in 1.2 mi Calm Calm - N/A   Overcast
9:37 AM 33.1 °F - 33.1 °F 100% 30.26 in 3.0 mi Calm Calm - N/A   Overcast
9:50 AM 33.8 °F 30.8 °F 33.8 °F 100% 30.26 in 2.5 mi Variable 3.5 mph - N/A   Overcast
9:53 AM 34.0 °F 31.0 °F 33.1 °F 96% 30.27 in 2.5 mi SSE 3.5 mph - N/A   Overcast
10:12 AM 33.1 °F 28.7 °F 33.1 °F 100% 30.26 in 4.0 mi SSE 4.6 mph - N/A   Overcast
10:53 AM 35.1 °F - 34.0 °F 96% 30.27 in 6.0 mi Calm Calm - N/A   Overcast
11:53 AM 35.1 °F - 33.1 °F 92% 30.25 in 6.0 mi Calm Calm - N/A   Overcast
12:53 PM 36.0 °F - 35.1 °F 97% 30.22 in 5.0 mi Calm Calm - N/A   Overcast
1:53 PM 37.9 °F - 36.0 °F 93% 30.21 in 8.0 mi Calm Calm - N/A   Overcast
2:53 PM 37.9 °F 35.5 °F 36.0 °F 93% 30.20 in 7.0 mi SW 3.5 mph - N/A   Overcast
3:51 PM 37.4 °F 34.9 °F 37.4 °F 100% 30.18 in 5.0 mi SW 3.5 mph - N/A   Overcast
3:53 PM 37.9 °F - 36.0 °F 93% 30.20 in 5.0 mi Calm Calm - N/A   Overcast
4:09 PM 37.9 °F - 37.0 °F 97% 30.18 in 2.0 mi Calm Calm - N/A   Overcast
4:17 PM 37.0 °F 34.5 °F 36.0 °F 96% 30.18 in 1.5 mi North 3.5 mph - N/A   Overcast
4:28 PM 37.0 °F - 36.0 °F 96% 30.18 in 0.5 mi Calm Calm - N/A Fog Fog
4:53 PM 36.0 °F 33.3 °F 36.0 °F 100% 30.19 in 0.5 mi SSW 3.5 mph - N/A Fog Fog
5:13 PM 36.0 °F - 36.0 °F 100% 30.17 in 0.2 mi Calm Calm - N/A Fog Fog
5:53 PM 36.0 °F - 36.0 °F 100% 30.20 in 0.5 mi Calm Calm - N/A Fog Fog
6:06 PM 36.0 °F 33.3 °F 35.1 °F 97% 30.18 in 0.2 mi NW 3.5 mph - N/A Fog Fog
6:53 PM 35.1 °F - 35.1 °F 100% 30.22 in 0.5 mi Calm Calm - N/A Fog Fog
7:01 PM 35.1 °F 32.2 °F 35.1 °F 100% 30.20 in 0.2 mi SSW 3.5 mph - N/A Fog Fog
7:53 PM 35.1 °F - 35.1 °F 100% 30.22 in 0.2 mi Calm Calm - N/A Fog Fog
8:53 PM 34.0 °F - 34.0 °F 100% 30.22 in 0.2 mi Calm Calm - N/A Fog Fog
9:53 PM 34.0 °F - 34.0 °F 100% 30.23 in 0.2 mi Calm Calm - N/A Fog Fog
10:53 PM 34.0 °F - 34.0 °F 100% 30.22 in 0.2 mi Calm Calm - N/A Fog Fog
11:53 PM 33.1 °F - 33.1 °F 100% 30.22 in 0.2 mi Calm Calm - N/A Fog Fog